www.pogodaiklimat.ru

ПОГОДА в Токсук-Бее, AK

  • Прогноз погоды в Токсук-Бее
  • Монитор погоды в Токсук-Бее
  • Климат в Токсук-Бее

АРХИВ ПОГОДЫ в Токсук-Бее

Время (UTC), дата Ветер
(напр.,м/с)
 
Видим.   Явления Облачность Т
(С)
Тd
(С)
f
(%)
Тe
(С)
Тes
(С)
Комфортность

P
(гПа)

Po
(гПа)
Тmin
(С)
Tmax
(С)
R
(мм)
SD
(см)
04:56 12.06 З  16 км    8/0 3600 м
[средняя] 
+10.6  +7.2  79  +8  +9    1013.8  1010.6  +10.6  +14.4     
05:56 12.06 З  16 км    10/0 3600 м
[средняя] 
+11.1  +6.7  74  +8  +8    1013.8  1010.6         
06:56 12.06 СЗ  16 км    8/0 3300 м
[средняя] 
+10.0  +5.0  71  +7  +7    1013.9  1010.6         
07:56 12.06 СЗ  16 км    5/0 3300 м
[средняя] 
+9.4  +6.1  80  +7  +7    1013.9  1010.6         
08:56 12.06 СЗ  16 км    ясно  +7.8  +7.2  96  +3  +3    1013.9  1010.6         
09:56 12.06 З  16 км    2/0 3300 м
[средняя] 
+8.9  +7.8  93  +6  +6    1013.7  1010.3         
10:56 12.06 СЗ  16 км    ясно  +7.8  +7.2  96  +3  +3    1013.7  1010.3  +7.8  +12.2     
11:56 12.06 СЗ  16 км    ясно  +7.8  +6.7  93  +6  +6    1013.5  1010.3         
12:56 12.06 В  16 км    10/0 3000 м
[средняя] 
+8.9  +7.2  89  +7  +7    1013.6  1010.3         
13:56 12.06 СЗ  8 км  дымка  8/0 3600 м
[средняя] 
+8.9  +8.3  96  +5  +5    1013.5  1010.3         
13:59 12.06 СЗ  2 км  дымка  8/0 3600 м
[средняя] 
+9.0  +8.0  93  +5  +5      1010.3         
14:01 12.06 СЗ  800 м  туман  8/0 3600 м
[средняя] 
+9.0  +8.0  93  +5  +5      1010.3         
14:05 12.06 СЗ  400 м  слабый дождь, туман  8/2 30 м
[средняя] 
+9.0  +8.0  93  +5  +5      1010.3         
14:18 12.06 СЗ  1 км  слабый дождь, дымка  10/2 30 м
[средняя] 
+9.0  +9.0  100  +5  +5      1009.9         
14:22 12.06 СЗ  2 км  слабый дождь, дымка  10/2 30 м
[средняя] 
+9.0  +9.0  100  +5  +5      1009.9         
14:27 12.06 СЗ  6 км  дымка  10/2 30 м
[средняя] 
+9.0  +9.0  100  +5  +5      1009.9         
14:56 12.06 СЗ  16 км    10/0 2700 м
[средняя] 
+10.0  +9.4  96  +7  +7    1013.2  1009.9         
15:56 12.06 С  16 км    10/0 3300 м
[средняя] 
+12.2  +10.0  86  +11  +11    1013.4  1009.9         
16:56 12.06 СЗ  16 км    10/0 3300 м
[средняя] 
+12.8  +10.0  83  +12  +13    1013.2  1009.9  +6.7  +12.8     
17:56 12.06 ЮВ  14 км    5/2 1230 м
[средняя] 
+16.1  +10.0  67  +16  +19    1013.2  1009.9         
18:56 12.06 СЗ  16 км    ясно  +18.3  +7.8  50  +19  +25    1013.0  1009.6         
19:56 12.06 З  16 км    2/0 2700 м
[средняя] 
+19.4  +8.3  49  +20  +22    1012.9  1009.6         
20:56 12.06 СЗ  16 км    ясно  +20.0  +7.2  43  +21  +25  комфорт  1012.8  1009.6         
21:56 12.06 СЗ  16 км    8/5 1950 м
[средняя] 
+20.6  +7.2  42  +21  +22  комфорт  1012.4  1009.2         
22:56 12.06 С  16 км    8/2 1650 м
[средняя] 
+20.0  +10.0  53  +21  +22  комфорт  1012.2  1008.9  +13.3  +21.1     
23:56 12.06 СЗ  16 км    ясно  +21.1  +10.0  49  +23  +28  комфорт  1011.5  1008.2         
00:56 13.06 З  9
{11} 
16 км    ясно  +18.9  +11.1  61  +19  +19    1011.1  1007.9         
01:56 13.06 СЗ  16 км    ясно  +21.7  +10.0  47  +23  +24  комфорт  1010.5  1007.2         
02:56 13.06 СЗ  16 км    ясно  +21.1  +10.0  49  +23  +24  комфорт  1010.7  1007.6         
03:56 13.06 В  16 км    10/5 1950 м
[средняя] 
+20.6  +10.0  51  +22  +22  комфорт  1011.0  1007.9         
04:10 13.06 В  13
{18} 
16 км    10/2 1650 м
[средняя] 
+16.0  +11.0  72  +13  +13      1007.9         
04:56 13.06 В  13
{16} 
16 км    8/0 2700 м
[средняя] 
+16.1  +8.9  62  +14  +14    1011.0  1007.6  +15.0  +21.7     
05:56 13.06 СЗ  16 км    н/о  +15.6  +8.9  64  +15  +15    1011.5  1008.2         
06:56 13.06 СВ  8
{11} 
16 км    10/0 2250 м
[средняя] 
+16.1  +9.4  64  +14  +14    1011.6  1008.2         
07:56 13.06 СВ  16 км    10/0 2700 м
[средняя] 
+15.6  +10.0  69  +15  +15    1012.0  1008.6         
08:56 13.06 СЗ  16 км    8/0 2550 м
[средняя] 
+13.9  +8.3  69  +13  +13    1011.9  1008.6         
09:56 13.06 С  16 км    10/0 2400 м
[средняя] 
+15.0  +8.9  67  +13  +13    1012.1  1008.9         
10:56 13.06 С  16 км    10/0 2550 м
[средняя] 
+15.6  +8.3  62  +14  +14    1012.1  1008.9  +13.9  +17.2     
11:56 13.06 нст  16 км    5/0 2400 м
[средняя] 
+15.0  +8.9  67  +14  +14    1012.2  1008.9         
12:56 13.06   16 км    2/0 3600 м
[средняя] 
+13.9  +9.4  74  +14  +14    1012.3  1008.9         
13:56 13.06 В  16 км    8/0 3300 м
[средняя] 
+13.3  +10.6  84  +13  +13    1012.4  1009.2         
14:56 13.06   16 км    8/0 3000 м
[средняя] 
+12.8  +10.0  83  +12  +13    1012.6  1009.2         
15:56 13.06 В  16 км    5/0 2700 м
[средняя] 
+15.0  +12.2  83  +15  +16    1012.8  1009.6         
16:56 13.06 В  16 км    ясно  +15.6  +13.3  86  +15  +17    1013.3  1009.9  +11.7  +16.1     
17:56 13.06 Ю  16 км    ясно  +16.1  +13.3  83  +16  +20    1013.6  1010.3         
18:56 13.06 Ю  16 км    ясно  +15.0  +10.0  72  +14  +18    1014.1  1010.9         
19:56 13.06 Ю  16 км    ясно  +15.0  +8.3  64  +14  +20    1014.1  1010.9         
20:56 13.06 Ю  16 км    ясно  +15.6  +9.4  67  +15  +22    1014.1  1010.9         

 

Местоположение метеостанции Toksook Bay Airport: широта 60.5335 долгота -165.1143 высота над уровнем моря 18 м.

В архиве по умолчанию представлена погода в Токсук-Бее за последние 1-2 суток. Обновление информации о фактической погоде в базе происходит ежечасно! Архивные данные за месяц целиком и за предыдущие месяцы Вы можете получить, выбрав интересующий диапазон дат из раскрывающегося списка и нажав кнопку "Ввод!".

Внимание! Архив погоды МЕТАР в базе сайта хранится не более 60 дней. Нет смысла пытаться выбрать более раннюю дату.

Внимание! Время в таблицах - всемирное. Для получения местного времени необходимо прибавить поправку, которая в Токсук-Бее равна -9 ч.

Ветер - указаны скорость ветра в м/с и направление, откуда дует ветер: С - северный, СВ - северо-восточный, В - восточный, ЮВ - юго-восточный, Ю - южный, ЮЗ - юго-западный, З - западный, СЗ - северо-западный.
Видимость - горизонтальная дальность видимости в метрах или километрах. При видимости от 1 до 10 км при отсутствии осадков обычно наблюдается дымка, при ухудшении видимости до 1 км и менее - туман. В сухую погоду видимость может ухудшаться дымом, пылью или мглою.
Атмосферные явления - указаны явления, наблюдавшиеся в указанный момент времени.
Облачность - указаны через наклонную черту верхняя и нижняя облачность в баллах и высота нижней границы облаков в метрах. Внимание: облачность, как и прочие метеорологические величины в США измеряются автоматическими метеостанциями. Указанные значения в баллах носят условный характер и показывают процент времени, в течение которого, в среднем, лазерный луч высотомера отражался от облаков обратно.
T - Температура воздуха - температура, измеренная на высоте 2 м над землей.
Td - Температура точки росы - температура, при понижении до которой содержащийся в воздухе водяной пар достигнет насыщения.
f - Относительная влажность воздуха - влажноcть воздуха, измеренная на высоте 2 м над землей.
Te - Эффективная температура - температура, которую ощущает одетый по сезону человек в тени. Характеристика душности погоды. При расчете учитывается влияние влажности воздуха и скорости ветра на теплоощущения человека.
Tes - Эффективная температура на солнце - температура, которую ощущает человек, с поправкой на солнечный нагрев. Характеристика знойности погоды. Зависит от высоты солнца над горизонтом, облачности и скорости ветра. Ночью, в пасмурную погоду, а также при ветре 12 м/с и более поправка равна нулю.
P - Атмосферное давление - приведенное к уровню моря атмосферное давление.
Po - Атмосферное давление - измеренное на уровне метеостанции атмосферное давление.
Tmin - Минимальная температура - минимум температуры воздуха на высоте 2 м над землей.
Tmax - Максимальная температура - максимум температуры воздуха на высоте 2 м над землей.
R - Количество осадков - Количество выпавших осадков за 3 или 6 часов, мм.
SD - Снежный покров - Высота снежного покрова, см.